owner,sensor,date,latitude,longitude,vertical_datum,direction_of_sea_water_velocity,sea_water_speed,upward_sea_water_velocity,qcFlag 
TABS,ioos:station:wmo:42045:1,2003-01-01T00:00:00Z,26.2168,-96.4998,2.0,288.8341298,6.81487344,-99999.0,'11133222,11111222,99999999' 
TABS,ioos:station:wmo:42045:1,2003-01-01T00:30:00Z,26.2168,-96.4998,2.0,294.3845422,9.519128111,-99999.0,'11133222,11111222,99999999' 
TABS,ioos:station:wmo:42045:1,2003-01-01T01:00:00Z,26.2168,-96.4998,2.0,340.8694404,11.71710288,-99999.0,'11111222,11111222,99999999' 
TABS,ioos:station:wmo:42045:1,2003-01-01T01:30:00Z,26.2168,-96.4998,2.0,334.7225473,9.554894034,-99999.0,'11133222,11111222,99999999' 
TABS,ioos:station:wmo:42045:1,2003-01-01T02:00:00Z,26.2168,-96.4998,2.0,342.8668258,9.606315631,-99999.0,'11133222,11111222,99999999' 
TABS,ioos:station:wmo:42045:1,2003-01-01T02:30:00Z,26.2168,-96.4998,2.0,351.7591609,10.95310458,-99999.0,'11111222,11111222,99999999' 
TABS,ioos:station:wmo:42045:1,2003-01-01T03:00:00Z,26.2168,-96.4998,2.0,327.0992383,13.49436179,-99999.0,'11111222,11111222,99999999' 
TABS,ioos:station:wmo:42045:1,2003-01-01T03:30:00Z,26.2168,-96.4998,2.0,334.5327873,11.90701054,-99999.0,'11111222,11111222,99999999' 
TABS,ioos:station:wmo:42045:1,2003-01-01T04:00:00Z,26.2168,-96.4998,2.0,318.7697279,10.86344789,-99999.0,'11111222,11111222,99999999' 
TABS,ioos:station:wmo:42045:1,2003-01-01T04:30:00Z,26.2168,-96.4998,2.0,324.2608532,12.87450582,-99999.0,'11111222,11111222,99999999' 
TABS,ioos:station:wmo:42045:1,2003-01-01T05:00:00Z,26.2168,-96.4998,2.0,334.5032904,13.91523266,-99999.0,'11111222,11111222,99999999' 
TABS,ioos:station:wmo:42045:1,2003-01-01T05:30:00Z,26.2168,-96.4998,2.0,344.4296619,13.85860383,-99999.0,'11111222,11111222,99999999' 
TABS,ioos:station:wmo:42045:1,2003-01-01T06:00:00Z,26.2168,-96.4998,2.0,355.8485424,11.74080917,-99999.0,'11111222,11111222,99999999' 
TABS,ioos:station:wmo:42045:1,2003-01-01T06:30:00Z,26.2168,-96.4998,2.0,2.789133244,14.79752682,-99999.0,'11111222,11111222,99999999' 
TABS,ioos:station:wmo:42045:1,2003-01-01T07:00:00Z,26.2168,-96.4998,2.0,10.65965231,15.02934796,-99999.0,'11111222,11111222,99999999' 
TABS,ioos:station:wmo:42045:1,2003-01-01T07:30:00Z,26.2168,-96.4998,2.0,4.759056205,19.88856204,-99999.0,'11111222,11111222,99999999' 
TABS,ioos:station:wmo:42045:1,2003-01-01T08:00:00Z,26.2168,-96.4998,2.0,11.33851159,19.7861593,-99999.0,'11111222,11111222,99999999' 
TABS,ioos:station:wmo:42045:1,2003-01-01T08:30:00Z,26.2168,-96.4998,2.0,11.6102535,21.71427641,-99999.0,'11111222,11111222,99999999' 
TABS,ioos:station:wmo:42045:1,2003-01-01T09:00:00Z,26.2168,-96.4998,2.0,26.64787716,30.99193443,-99999.0,'11111222,11111222,99999999' 
TABS,ioos:station:wmo:42045:1,2003-01-01T09:30:00Z,26.2168,-96.4998,2.0,19.43259286,25.06801149,-99999.0,'11111222,11111222,99999999' 
TABS,ioos:station:wmo:42045:1,2003-01-01T10:00:00Z,26.2168,-96.4998,2.0,36.27783992,27.09144699,-99999.0,'11111222,11111222,99999999' 
TABS,ioos:station:wmo:42045:1,2003-01-01T10:30:00Z,26.2168,-96.4998,2.0,34.042382,24.36566642,-99999.0,'11111222,11111222,99999999' 
TABS,ioos:station:wmo:42045:1,2003-01-01T11:00:00Z,26.2168,-96.4998,2.0,28.51631933,25.2195797,-99999.0,'11111222,11111222,99999999' 
TABS,ioos:station:wmo:42045:1,2003-01-01T11:30:00Z,26.2168,-96.4998,2.0,29.43905249,23.45902385,-99999.0,'11111222,11111222,99999999' 
TABS,ioos:station:wmo:42045:1,2003-01-01T12:00:00Z,26.2168,-96.4998,2.0,26.305075,22.65607424,-99999.0,'11111222,11111222,99999999' 
TABS,ioos:station:wmo:42045:1,2003-01-01T12:30:00Z,26.2168,-96.4998,2.0,13.80508059,9.010271916,-99999.0,'11133222,11111222,99999999' 
TABS,ioos:station:wmo:42045:1,2003-01-01T13:00:00Z,26.2168,-96.4998,2.0,29.73299288,17.72332362,-99999.0,'11111222,11111222,99999999' 
TABS,ioos:station:wmo:42045:1,2003-01-01T13:30:00Z,26.2168,-96.4998,2.0,22.9913558,25.75592553,-99999.0,'11111222,11111222,99999999' 
TABS,ioos:station:wmo:42045:1,2003-01-01T14:00:00Z,26.2168,-96.4998,2.0,23.66662949,26.53134938,-99999.0,'11111222,11111222,99999999' 
TABS,ioos:station:wmo:42045:1,2003-01-01T14:30:00Z,26.2168,-96.4998,2.0,19.2484277,27.17935246,-99999.0,'11111222,11111222,99999999' 
TABS,ioos:station:wmo:42045:1,2003-01-01T15:00:00Z,26.2168,-96.4998,2.0,24.27188975,30.28720192,-99999.0,'11111222,11111222,99999999' 
TABS,ioos:station:wmo:42045:1,2003-01-01T15:30:00Z,26.2168,-96.4998,2.0,21.03767229,31.19958974,-99999.0,'11111222,11111222,99999999' 
TABS,ioos:station:wmo:42045:1,2003-01-01T16:00:00Z,26.2168,-96.4998,2.0,17.89827077,31.72536209,-99999.0,'11111222,11111222,99999999' 
TABS,ioos:station:wmo:42045:1,2003-01-01T16:30:00Z,26.2168,-96.4998,2.0,15.80268746,33.59987202,-99999.0,'11111222,11111222,99999999' 
TABS,ioos:station:wmo:42045:1,2003-01-01T17:00:00Z,26.2168,-96.4998,2.0,15.72825792,33.68105254,-99999.0,'11111222,11111222,99999999' 
TABS,ioos:station:wmo:42045:1,2003-01-01T17:30:00Z,26.2168,-96.4998,2.0,19.59829414,35.98464812,-99999.0,'11111222,11111222,99999999' 
TABS,ioos:station:wmo:42045:1,2003-01-01T18:00:00Z,26.2168,-96.4998,2.0,18.20708487,36.54989466,-99999.0,'11111222,11111222,99999999' 
TABS,ioos:station:wmo:42045:1,2003-01-01T18:30:00Z,26.2168,-96.4998,2.0,18.01236741,37.28743086,-99999.0,'11111222,11111222,99999999' 
TABS,ioos:station:wmo:42045:1,2003-01-01T19:00:00Z,26.2168,-96.4998,2.0,16.05053191,38.9898615,-99999.0,'11111222,11111222,99999999' 
TABS,ioos:station:wmo:42045:1,2003-01-01T19:30:00Z,26.2168,-96.4998,2.0,14.50034332,39.53945371,-99999.0,'11111222,11111222,99999999' 
TABS,ioos:station:wmo:42045:1,2003-01-01T20:00:00Z,26.2168,-96.4998,2.0,15.51047546,39.97582394,-99999.0,'11111222,11111222,99999999' 
TABS,ioos:station:wmo:42045:1,2003-01-01T20:30:00Z,26.2168,-96.4998,2.0,12.55625159,41.03131609,-99999.0,'11111222,11111222,99999999' 
TABS,ioos:station:wmo:42045:1,2003-01-01T21:00:00Z,26.2168,-96.4998,2.0,15.62993112,40.64286038,-99999.0,'11111222,11111222,99999999' 
TABS,ioos:station:wmo:42045:1,2003-01-01T22:30:00Z,26.2168,-96.4998,2.0,16.91281117,41.66190106,-99999.0,'11111222,11111222,99999999' 
TABS,ioos:station:wmo:42045:1,2003-01-01T23:00:00Z,26.2168,-96.4998,2.0,17.20296021,42.9410107,-99999.0,'11111222,11111222,99999999' 
TABS,ioos:station:wmo:42045:1,2003-01-01T23:30:00Z,26.2168,-96.4998,2.0,17.41718843,45.03477878,-99999.0,'11111222,11111222,99999999' 
TABS,ioos:station:wmo:42045:1,2003-01-02T00:00:00Z,26.2168,-96.4998,2.0,14.49414621,37.03879723,-99999.0,'11111222,11111222,99999999' 
TABS,ioos:station:wmo:42045:1,2003-01-02T00:30:00Z,26.2168,-96.4998,2.0,16.34966776,38.75724706,-99999.0,'11111222,11111222,99999999' 
TABS,ioos:station:wmo:42045:1,2003-01-02T01:00:00Z,26.2168,-96.4998,2.0,10.58397152,43.17451216,-99999.0,'11111222,11111222,99999999' 
TABS,ioos:station:wmo:42045:1,2003-01-02T01:30:00Z,26.2168,-96.4998,2.0,11.01302863,41.98314543,-99999.0,'11111222,11111222,99999999' 
TABS,ioos:station:wmo:42045:1,2003-01-02T02:00:00Z,26.2168,-96.4998,2.0,9.159055482,47.18152711,-99999.0,'11111222,11111222,99999999' 
TABS,ioos:station:wmo:42045:1,2003-01-02T02:30:00Z,26.2168,-96.4998,2.0,6.474873983,44.69507467,-99999.0,'11111222,11111222,99999999' 
TABS,ioos:station:wmo:42045:1,2003-01-02T03:00:00Z,26.2168,-96.4998,2.0,5.763069662,43.6204585,-99999.0,'11111222,11111222,99999999' 
TABS,ioos:station:wmo:42045:1,2003-01-02T03:30:00Z,26.2168,-96.4998,2.0,17.77021422,43.87323216,-99999.0,'11111222,11111222,99999999' 
TABS,ioos:station:wmo:42045:1,2003-01-02T04:00:00Z,26.2168,-96.4998,2.0,17.81207113,47.40218244,-99999.0,'11111222,11111222,99999999' 
TABS,ioos:station:wmo:42045:1,2003-01-02T04:30:00Z,26.2168,-96.4998,2.0,24.11380884,45.79633282,-99999.0,'11111222,11111222,99999999' 
TABS,ioos:station:wmo:42045:1,2003-01-02T05:00:00Z,26.2168,-96.4998,2.0,27.08120585,44.19543981,-99999.0,'11111222,11111222,99999999' 
TABS,ioos:station:wmo:42045:1,2003-01-02T05:30:00Z,26.2168,-96.4998,2.0,27.15041408,44.66107925,-99999.0,'11111222,11111222,99999999' 
TABS,ioos:station:wmo:42045:1,2003-01-02T06:00:00Z,26.2168,-96.4998,2.0,28.48841397,44.90765302,-99999.0,'11111222,11111222,99999999' 
TABS,ioos:station:wmo:42045:1,2003-01-02T06:30:00Z,26.2168,-96.4998,2.0,29.00246609,43.64280582,-99999.0,'11111222,11111222,99999999' 
TABS,ioos:station:wmo:42045:1,2003-01-02T07:00:00Z,26.2168,-96.4998,2.0,31.88640453,38.24056616,-99999.0,'11111222,11111222,99999999' 
TABS,ioos:station:wmo:42045:1,2003-01-02T07:30:00Z,26.2168,-96.4998,2.0,31.05881855,38.30083158,-99999.0,'11111222,11111222,99999999' 
TABS,ioos:station:wmo:42045:1,2003-01-02T08:00:00Z,26.2168,-96.4998,2.0,32.11910393,29.94287895,-99999.0,'11111222,11111222,99999999' 
TABS,ioos:station:wmo:42045:1,2003-01-02T08:30:00Z,26.2168,-96.4998,2.0,31.43701298,33.43821915,-99999.0,'11111222,11111222,99999999' 
TABS,ioos:station:wmo:42045:1,2003-01-02T09:00:00Z,26.2168,-96.4998,2.0,37.70245453,30.56122543,-99999.0,'11111222,11111222,99999999' 
TABS,ioos:station:wmo:42045:1,2003-01-02T09:30:00Z,26.2168,-96.4998,2.0,39.32709636,30.04362162,-99999.0,'11111222,11111222,99999999' 
TABS,ioos:station:wmo:42045:1,2003-01-02T10:00:00Z,26.2168,-96.4998,2.0,49.62982047,26.63168414,-99999.0,'11111222,11111222,99999999' 
TABS,ioos:station:wmo:42045:1,2003-01-02T10:30:00Z,26.2168,-96.4998,2.0,65.51288099,20.84491545,-99999.0,'11111222,11111222,99999999' 
TABS,ioos:station:wmo:42045:1,2003-01-02T11:00:00Z,26.2168,-96.4998,2.0,54.83654895,18.336131,-99999.0,'11111222,11111222,99999999' 
TABS,ioos:station:wmo:42045:1,2003-01-02T11:30:00Z,26.2168,-96.4998,2.0,65.10629301,13.49370223,-99999.0,'11111222,11111222,99999999' 
TABS,ioos:station:wmo:42045:1,2003-01-02T12:00:00Z,26.2168,-96.4998,2.0,62.84026782,7.755101547,-99999.0,'11133222,11111222,99999999' 
TABS,ioos:station:wmo:42045:1,2003-01-02T12:30:00Z,26.2168,-96.4998,2.0,114.6205134,7.249034418,-99999.0,'11133222,11111222,99999999' 
TABS,ioos:station:wmo:42045:1,2003-01-02T13:00:00Z,26.2168,-96.4998,2.0,19.34863675,1.388416364,-99999.0,'11133222,11111222,99999999' 
TABS,ioos:station:wmo:42045:1,2003-01-02T13:30:00Z,26.2168,-96.4998,2.0,350.3268776,5.356155338,-99999.0,'11133222,11111222,99999999' 
TABS,ioos:station:wmo:42045:1,2003-01-02T14:00:00Z,26.2168,-96.4998,2.0,86.32830849,1.873846312,-99999.0,'11133222,11111222,99999999' 
TABS,ioos:station:wmo:42045:1,2003-01-02T14:30:00Z,26.2168,-96.4998,2.0,358.893186,2.070386437,-99999.0,'11133222,11111222,99999999' 
TABS,ioos:station:wmo:42045:1,2003-01-02T15:00:00Z,26.2168,-96.4998,2.0,204.8830062,2.590482581,-99999.0,'11133222,11111222,99999999' 
TABS,ioos:station:wmo:42045:1,2003-01-02T15:30:00Z,26.2168,-96.4998,2.0,294.6471341,6.546403593,-99999.0,'11133222,11111222,99999999' 
TABS,ioos:station:wmo:42045:1,2003-01-02T16:00:00Z,26.2168,-96.4998,2.0,283.6458375,6.400664028,-99999.0,'11133222,11111222,99999999' 
TABS,ioos:station:wmo:42045:1,2003-01-02T16:30:00Z,26.2168,-96.4998,2.0,286.9218626,7.902126296,-99999.0,'11133222,11111222,99999999' 
TABS,ioos:station:wmo:42045:1,2003-01-02T17:00:00Z,26.2168,-96.4998,2.0,293.8080921,8.645704136,-99999.0,'11133222,11111222,99999999' 
TABS,ioos:station:wmo:42045:1,2003-01-02T17:30:00Z,26.2168,-96.4998,2.0,270.5828889,10.82055914,-99999.0,'11111222,11111222,99999999' 
TABS,ioos:station:wmo:42045:1,2003-01-02T18:00:00Z,26.2168,-96.4998,2.0,289.8646719,9.88835679,-99999.0,'11133222,11111222,99999999' 
TABS,ioos:station:wmo:42045:1,2003-01-02T18:30:00Z,26.2168,-96.4998,2.0,266.4181207,13.92720001,-99999.0,'11111222,11111222,99999999' 
TABS,ioos:station:wmo:42045:1,2003-01-02T19:00:00Z,26.2168,-96.4998,2.0,251.9927012,14.81568426,-99999.0,'11111222,11111222,99999999' 
TABS,ioos:station:wmo:42045:1,2003-01-02T19:30:00Z,26.2168,-96.4998,2.0,279.7985829,12.34,-99999.0,'11111222,11111222,99999999' 
TABS,ioos:station:wmo:42045:1,2003-01-02T20:00:00Z,26.2168,-96.4998,2.0,277.9004445,15.49707714,-99999.0,'11111222,11111222,99999999' 
TABS,ioos:station:wmo:42045:1,2003-01-02T20:30:00Z,26.2168,-96.4998,2.0,298.0163986,12.53941785,-99999.0,'11111222,11111222,99999999' 
TABS,ioos:station:wmo:42045:1,2003-01-02T21:00:00Z,26.2168,-96.4998,2.0,286.4317073,13.92886212,-99999.0,'11111222,11111222,99999999' 
TABS,ioos:station:wmo:42045:1,2003-01-02T21:30:00Z,26.2168,-96.4998,2.0,310.6350682,9.290048439,-99999.0,'11133222,11111222,99999999' 
TABS,ioos:station:wmo:42045:1,2003-01-02T22:00:00Z,26.2168,-96.4998,2.0,305.5633341,13.15342161,-99999.0,'11111222,11111222,99999999' 
TABS,ioos:station:wmo:42045:1,2003-01-02T22:30:00Z,26.2168,-96.4998,2.0,302.7630888,12.5101279,-99999.0,'11111222,11111222,99999999' 
TABS,ioos:station:wmo:42045:1,2003-01-02T23:00:00Z,26.2168,-96.4998,2.0,289.2036528,17.45101716,-99999.0,'11111222,11111222,99999999' 
TABS,ioos:station:wmo:42045:1,2003-01-02T23:30:00Z,26.2168,-96.4998,2.0,303.4809,14.41120744,-99999.0,'11111222,11111222,99999999' 
TABS,ioos:station:wmo:42045:1,2003-01-03T00:00:00Z,26.2168,-96.4998,2.0,309.1081018,7.990093867,-99999.0,'11133222,11111222,99999999' 
TABS,ioos:station:wmo:42045:1,2003-01-03T00:30:00Z,26.2168,-96.4998,2.0,309.9771525,9.852481921,-99999.0,'11133222,11111222,99999999' 
TABS,ioos:station:wmo:42045:1,2003-01-03T01:00:00Z,26.2168,-96.4998,2.0,315.8394729,21.24376614,-99999.0,'11111222,11111222,99999999' 
TABS,ioos:station:wmo:42045:1,2003-01-03T01:30:00Z,26.2168,-96.4998,2.0,316.7908366,20.59393357,-99999.0,'11111222,11111222,99999999' 
TABS,ioos:station:wmo:42045:1,2003-01-03T02:00:00Z,26.2168,-96.4998,2.0,325.6225728,18.94992348,-99999.0,'11111222,11111222,99999999' 
TABS,ioos:station:wmo:42045:1,2003-01-03T02:30:00Z,26.2168,-96.4998,2.0,319.380656,23.70073839,-99999.0,'11111222,11111222,99999999' 
TABS,ioos:station:wmo:42045:1,2003-01-03T03:00:00Z,26.2168,-96.4998,2.0,322.6431073,24.45688451,-99999.0,'11111222,11111222,99999999' 
TABS,ioos:station:wmo:42045:1,2003-01-03T03:30:00Z,26.2168,-96.4998,2.0,325.3586001,23.04542471,-99999.0,'11111222,11111222,99999999' 
TABS,ioos:station:wmo:42045:1,2003-01-03T04:00:00Z,26.2168,-96.4998,2.0,332.1552102,22.82253273,-99999.0,'11111222,11111222,99999999' 
TABS,ioos:station:wmo:42045:1,2003-01-03T04:30:00Z,26.2168,-96.4998,2.0,328.802602,24.36329206,-99999.0,'11111222,11111222,99999999' 
TABS,ioos:station:wmo:42045:1,2003-01-03T05:00:00Z,26.2168,-96.4998,2.0,328.8503708,24.28089784,-99999.0,'11111222,11111222,99999999' 
TABS,ioos:station:wmo:42045:1,2003-01-03T05:30:00Z,26.2168,-96.4998,2.0,332.7732617,26.7093785,-99999.0,'11111222,11111222,99999999' 
TABS,ioos:station:wmo:42045:1,2003-01-03T06:00:00Z,26.2168,-96.4998,2.0,322.6757429,29.48892843,-99999.0,'11111222,11111222,99999999' 
TABS,ioos:station:wmo:42045:1,2003-01-03T06:30:00Z,26.2168,-96.4998,2.0,331.3707958,26.4430142,-99999.0,'11111222,11111222,99999999' 
TABS,ioos:station:wmo:42045:1,2003-01-03T07:00:00Z,26.2168,-96.4998,2.0,337.5242531,26.6546994,-99999.0,'11111222,11111222,99999999' 
TABS,ioos:station:wmo:42045:1,2003-01-03T07:30:00Z,26.2168,-96.4998,2.0,342.4410576,25.6553932,-99999.0,'11111222,11111222,99999999' 
TABS,ioos:station:wmo:42045:1,2003-01-03T08:00:00Z,26.2168,-96.4998,2.0,343.407471,25.77323418,-99999.0,'11111222,11111222,99999999' 
TABS,ioos:station:wmo:42045:1,2003-01-03T08:30:00Z,26.2168,-96.4998,2.0,349.1494761,28.63191401,-99999.0,'11111222,11111222,99999999' 
TABS,ioos:station:wmo:42045:1,2003-01-03T09:00:00Z,26.2168,-96.4998,2.0,346.927128,26.2606169,-99999.0,'11111222,11111222,99999999' 
TABS,ioos:station:wmo:42045:1,2003-01-03T09:30:00Z,26.2168,-96.4998,2.0,352.626189,24.54298474,-99999.0,'11111222,11111222,99999999' 
TABS,ioos:station:wmo:42045:1,2003-01-03T10:00:00Z,26.2168,-96.4998,2.0,358.1640149,25.90330095,-99999.0,'11111222,11111222,99999999' 
TABS,ioos:station:wmo:42045:1,2003-01-03T10:30:00Z,26.2168,-96.4998,2.0,351.0392039,23.11209424,-99999.0,'11111222,11111222,99999999' 
TABS,ioos:station:wmo:42045:1,2003-01-03T11:00:00Z,26.2168,-96.4998,2.0,354.9052021,21.39453435,-99999.0,'11111222,11111222,99999999' 
TABS,ioos:station:wmo:42045:1,2003-01-03T11:30:00Z,26.2168,-96.4998,2.0,5.122451345,25.87332603,-99999.0,'11111222,11111222,99999999' 
TABS,ioos:station:wmo:42045:1,2003-01-03T12:00:00Z,26.2168,-96.4998,2.0,2.086803274,25.81711835,-99999.0,'11111222,11111222,99999999' 
TABS,ioos:station:wmo:42045:1,2003-01-03T12:30:00Z,26.2168,-96.4998,2.0,346.3127516,5.578422716,-99999.0,'11133222,11111222,99999999' 
TABS,ioos:station:wmo:42045:1,2003-01-03T13:00:00Z,26.2168,-96.4998,2.0,347.9887602,11.53249323,-99999.0,'11111222,11111222,99999999' 
TABS,ioos:station:wmo:42045:1,2003-01-03T13:30:00Z,26.2168,-96.4998,2.0,356.3709354,22.27467171,-99999.0,'11111222,11111222,99999999' 
TABS,ioos:station:wmo:42045:1,2003-01-03T14:00:00Z,26.2168,-96.4998,2.0,355.6015154,22.29567223,-99999.0,'11111222,11111222,99999999' 
TABS,ioos:station:wmo:42045:1,2003-01-03T14:30:00Z,26.2168,-96.4998,2.0,353.2956349,25.52455484,-99999.0,'11111222,11111222,99999999' 
TABS,ioos:station:wmo:42045:1,2003-01-03T15:00:00Z,26.2168,-96.4998,2.0,355.8759735,21.13472971,-99999.0,'11111222,11111222,99999999' 
TABS,ioos:station:wmo:42045:1,2003-01-03T15:30:00Z,26.2168,-96.4998,2.0,354.3460823,20.19826973,-99999.0,'11111222,11111222,99999999' 
TABS,ioos:station:wmo:42045:1,2003-01-03T16:00:00Z,26.2168,-96.4998,2.0,346.5650034,21.73481309,-99999.0,'11111222,11111222,99999999' 
TABS,ioos:station:wmo:42045:1,2003-01-03T16:30:00Z,26.2168,-96.4998,2.0,347.3695128,21.95122776,-99999.0,'11111222,11111222,99999999' 
TABS,ioos:station:wmo:42045:1,2003-01-03T17:00:00Z,26.2168,-96.4998,2.0,337.9879832,22.70512277,-99999.0,'11111222,11111222,99999999' 
TABS,ioos:station:wmo:42045:1,2003-01-03T17:30:00Z,26.2168,-96.4998,2.0,335.1266684,25.60519088,-99999.0,'11111222,11111222,99999999' 
TABS,ioos:station:wmo:42045:1,2003-01-03T18:00:00Z,26.2168,-96.4998,2.0,338.5810973,25.32940781,-99999.0,'11111222,11111222,99999999' 
TABS,ioos:station:wmo:42045:1,2003-01-03T18:30:00Z,26.2168,-96.4998,2.0,335.0913159,26.6158543,-99999.0,'11111222,11111222,99999999' 
TABS,ioos:station:wmo:42045:1,2003-01-03T19:00:00Z,26.2168,-96.4998,2.0,338.7946537,26.42958948,-99999.0,'11111222,11111222,99999999' 
TABS,ioos:station:wmo:42045:1,2003-01-03T19:30:00Z,26.2168,-96.4998,2.0,339.2182112,26.40819948,-99999.0,'11111222,11111222,99999999' 
TABS,ioos:station:wmo:42045:1,2003-01-03T20:00:00Z,26.2168,-96.4998,2.0,338.8329576,25.67209575,-99999.0,'11111222,11111222,99999999' 
TABS,ioos:station:wmo:42045:1,2003-01-03T20:30:00Z,26.2168,-96.4998,2.0,339.1506127,26.49495235,-99999.0,'11111222,11111222,99999999' 
TABS,ioos:station:wmo:42045:1,2003-01-03T21:00:00Z,26.2168,-96.4998,2.0,345.0430831,25.8042729,-99999.0,'11111222,11111222,99999999' 
TABS,ioos:station:wmo:42045:1,2003-01-03T21:30:00Z,26.2168,-96.4998,2.0,343.5835775,26.21889776,-99999.0,'11111222,11111222,99999999' 
TABS,ioos:station:wmo:42045:1,2003-01-03T22:00:00Z,26.2168,-96.4998,2.0,343.3684985,26.83256417,-99999.0,'11111222,11111222,99999999' 
TABS,ioos:station:wmo:42045:1,2003-01-03T22:30:00Z,26.2168,-96.4998,2.0,351.0521063,26.7455043,-99999.0,'11111222,11111222,99999999' 
TABS,ioos:station:wmo:42045:1,2003-01-03T23:00:00Z,26.2168,-96.4998,2.0,351.0969781,26.6207513,-99999.0,'11111222,11111222,99999999' 
TABS,ioos:station:wmo:42045:1,2003-01-03T23:30:00Z,26.2168,-96.4998,2.0,352.2140688,28.27063848,-99999.0,'11111222,11111222,99999999' 
TABS,ioos:station:wmo:42045:1,2003-01-04T00:00:00Z,26.2168,-96.4998,2.0,357.658998,14.93246463,-99999.0,'11111222,11111222,99999999' 
TABS,ioos:station:wmo:42045:1,2003-01-04T00:30:00Z,26.2168,-96.4998,2.0,351.2263829,9.440471387,-99999.0,'11133222,11111222,99999999' 
TABS,ioos:station:wmo:42045:1,2003-01-04T01:00:00Z,26.2168,-96.4998,2.0,346.8890882,23.58481291,-99999.0,'11111222,11111222,99999999' 
TABS,ioos:station:wmo:42045:1,2003-01-04T01:30:00Z,26.2168,-96.4998,2.0,354.5411368,26.06823546,-99999.0,'11111222,11111222,99999999' 
TABS,ioos:station:wmo:42045:1,2003-01-04T02:00:00Z,26.2168,-96.4998,2.0,352.3355288,25.94177519,-99999.0,'11111222,11111222,99999999' 
TABS,ioos:station:wmo:42045:1,2003-01-04T02:30:00Z,26.2168,-96.4998,2.0,355.1001552,33.48237148,-99999.0,'11111222,11111222,99999999' 
TABS,ioos:station:wmo:42045:1,2003-01-04T03:00:00Z,26.2168,-96.4998,2.0,357.5471845,32.70997401,-99999.0,'11111222,11111222,99999999' 
TABS,ioos:station:wmo:42045:1,2003-01-04T03:30:00Z,26.2168,-96.4998,2.0,354.4843897,29.85825347,-99999.0,'11111222,11111222,99999999' 
TABS,ioos:station:wmo:42045:1,2003-01-04T04:00:00Z,26.2168,-96.4998,2.0,352.863015,29.13575982,-99999.0,'11111222,11111222,99999999' 
TABS,ioos:station:wmo:42045:1,2003-01-04T04:30:00Z,26.2168,-96.4998,2.0,354.6706055,29.92939024,-99999.0,'11111222,11111222,99999999' 
TABS,ioos:station:wmo:42045:1,2003-01-04T05:00:00Z,26.2168,-96.4998,2.0,0.290165704,29.64037955,-99999.0,'11111222,11111222,99999999' 
TABS,ioos:station:wmo:42045:1,2003-01-04T05:30:00Z,26.2168,-96.4998,2.0,3.223385257,30.05754814,-99999.0,'11111222,11111222,99999999' 
TABS,ioos:station:wmo:42045:1,2003-01-04T06:00:00Z,26.2168,-96.4998,2.0,9.022693428,31.05423965,-99999.0,'11111222,11111222,99999999' 
TABS,ioos:station:wmo:42045:1,2003-01-04T06:30:00Z,26.2168,-96.4998,2.0,7.316513761,28.97591586,-99999.0,'11111222,11111222,99999999' 
TABS,ioos:station:wmo:42045:1,2003-01-04T07:00:00Z,26.2168,-96.4998,2.0,6.548850884,27.6202118,-99999.0,'11111222,11111222,99999999' 
TABS,ioos:station:wmo:42045:1,2003-01-04T07:30:00Z,26.2168,-96.4998,2.0,8.908167992,23.95898579,-99999.0,'11111222,11111222,99999999' 
TABS,ioos:station:wmo:42045:1,2003-01-04T08:00:00Z,26.2168,-96.4998,2.0,10.99383129,28.42158335,-99999.0,'11111222,11111222,99999999' 
TABS,ioos:station:wmo:42045:1,2003-01-04T08:30:00Z,26.2168,-96.4998,2.0,16.16704825,30.20444007,-99999.0,'11111222,11111222,99999999' 
TABS,ioos:station:wmo:42045:1,2003-01-04T09:00:00Z,26.2168,-96.4998,2.0,17.44975044,26.11162576,-99999.0,'11111222,11111222,99999999' 
TABS,ioos:station:wmo:42045:1,2003-01-04T09:30:00Z,26.2168,-96.4998,2.0,21.38369043,30.5532666,-99999.0,'11111222,11111222,99999999' 
TABS,ioos:station:wmo:42045:1,2003-01-04T10:00:00Z,26.2168,-96.4998,2.0,19.83445517,28.61766063,-99999.0,'11111222,11111222,99999999' 
TABS,ioos:station:wmo:42045:1,2003-01-04T10:30:00Z,26.2168,-96.4998,2.0,26.26185016,20.27247642,-99999.0,'11111222,11111222,99999999' 
TABS,ioos:station:wmo:42045:1,2003-01-04T11:00:00Z,26.2168,-96.4998,2.0,26.39723552,25.93402784,-99999.0,'11111222,11111222,99999999' 
TABS,ioos:station:wmo:42045:1,2003-01-04T11:30:00Z,26.2168,-96.4998,2.0,23.16270266,20.8724747,-99999.0,'11111222,11111222,99999999' 
TABS,ioos:station:wmo:42045:1,2003-01-04T12:00:00Z,26.2168,-96.4998,2.0,31.94941736,22.73378543,-99999.0,'11111222,11111222,99999999' 
TABS,ioos:station:wmo:42045:1,2003-01-04T12:30:00Z,26.2168,-96.4998,2.0,77.59833318,1.95563289,-99999.0,'11133222,11111222,99999999' 
TABS,ioos:station:wmo:42045:1,2003-01-04T13:00:00Z,26.2168,-96.4998,2.0,30.43529778,6.692159592,-99999.0,'11133222,11111222,99999999' 
TABS,ioos:station:wmo:42045:1,2003-01-04T13:30:00Z,26.2168,-96.4998,2.0,31.72006445,21.70160593,-99999.0,'11111222,11111222,99999999' 
TABS,ioos:station:wmo:42045:1,2003-01-04T14:00:00Z,26.2168,-96.4998,2.0,32.84600797,22.40122541,-99999.0,'11111222,11111222,99999999' 
TABS,ioos:station:wmo:42045:1,2003-01-04T14:30:00Z,26.2168,-96.4998,2.0,30.5441361,20.36600354,-99999.0,'11111222,11111222,99999999' 
TABS,ioos:station:wmo:42045:1,2003-01-04T15:00:00Z,26.2168,-96.4998,2.0,33.50506236,18.02507698,-99999.0,'11111222,11111222,99999999' 
TABS,ioos:station:wmo:42045:1,2003-01-04T15:30:00Z,26.2168,-96.4998,2.0,33.53294645,17.17912978,-99999.0,'11111222,11111222,99999999' 
TABS,ioos:station:wmo:42045:1,2003-01-04T16:00:00Z,26.2168,-96.4998,2.0,30.72238486,17.08827083,-99999.0,'11111222,11111222,99999999' 
TABS,ioos:station:wmo:42045:1,2003-01-04T16:30:00Z,26.2168,-96.4998,2.0,31.20574898,16.25135071,-99999.0,'11111222,11111222,99999999' 
TABS,ioos:station:wmo:42045:1,2003-01-04T17:00:00Z,26.2168,-96.4998,2.0,27.0402769,13.48395343,-99999.0,'11111222,11111222,99999999' 